Location: Les Moreaux
(47.2278°N, 1.4966°E)
Time: 22:10:22
(UTC+00:00)

Spot 1 - Pass Details

Date: 19 May 2025
Orbit: 568 x 753 km, 98.7° (Epoch: 18 June)

Event Time Altitude Azimuth Distance (km) Brightness Sun altitude
Rises 23:19:08 0° 16° (NNE) 2,866 8.6 -22.4°
Reaches altitude 10° 23:21:17 10° 18° (NNE) 1,982 7.5 -22.5°
Maximum altitude 23:25:35 73° 104° (ESE) 669 4.0 -22.6°
Enters shadow 23:25:57 68° 145° (SE) 689 4.0 -22.6°
